Dewpoint
9 4 10 10 10 9 11 11 11 11 11 11 11 10 10 7 7 9 11 11 11 11 12 12 11 8 8 8 8 8 9 9 10 10 11 12 11 9 8 7 6 5 2
5 8 10 10 10 10 10 10 9 9 10 10 11 11 4 2 1 5 11 11 12 12 11 10 10 10 9 9 9 8 8 9 9 10 10 10 10 11 11 12 11 10 8
2 9 10 10 10 10 10 10 10 10 10 11 12 6 4 3 3 3 10 12 11 10 10 10 10 10 11 10 10 9 10 9 10 11 12 12 13 12 11 11 12 12 11
1 10 10 10 10 10 10 6 9 9 11 11 10 6 5 4 3 4 8 10 7 8 8 10 10 11 10 10 9 10 10 11 10 11 10 11 10 5 2 3 5 7 7
3 10 10 10 9 10 9 4 4 6 9 11 9 6 5 5 4 4 5 7 7 7 6 7 8 9 9 8 8 8 10 9 8 7 4 5 10 11 8 8 7 6 5
5 11 11 10 9 8 6 5 2 1 1 6 6 6 5 5 5 5 4 5 5 6 8 6 6 6 6 6 7 8 8 8 6 4 4 8 10 10 8 7 4 2 2
5 10 10 10 7 4 5 5 4 4 2 5 6 6 6 5 5 6 5 5 6 7 7 6 6 6 6 7 8 9 9 10 9 8 7 8 10 8 4 3 1 -1 -2
7 6 9 11 7 5 5 5 5 4 4 4 8 6 6 6 6 6 6 5 5 5 5 5 6 6 5 8 8 8 8 8 9 9 8 5 2 -1 -2 -4 -6 -8 -10
10 7 10 9 6 7 5 6 6 6 7 5 5 5 6 6 6 6 6 6 6 5 5 5 6 6 7 7 7 7 6 6 6 4 2 -1 -2 -5 -6 -8 -10 -13 -14
11 11 10 9 10 9 9 11 10 10 10 5 5 5 5 5 5 5 6 6 6 6 6 5 6 6 6 6 6 6 5 4 2 -0 -2 -3 -5 -7 -8 -10 -12 -13 -14
12 11 10 10 11 7 12 12 11 11 8 5 5 5 5 4 4 4 4 5 6 7 7 6 6 6 7 7 7 6 5 5 2 -1 -3 -4 -6 -8 -9 -10 -11 -12 -12
11 11 10 9 8 7 8 10 11 10 8 6 5 5 4 4 3 3 4 5 6 8 8 8 7 6 5 5 5 4 2 1 -1 -2 -3 -4 -6 -8 -8 -10 -10 -10 -11
11 11 11 10 10 8 7 8 7 7 7 6 6 5 3 3 3 4 4 5 5 6 7 5 5 5 5 5 3 1 -1 -1 -2 -3 -3 -4 -5 -6 -7 -8 -9 -10 -10
12 11 11 11 11 10 8 8 7 7 7 6 5 4 4 4 4 4 4 3 3 2 2 2 1 0 0 -1 -3 -3 -4 -5 -5 -5 -6 -7 -6 -7 -9 -9 -9 -10 -10
10 11 11 10 10 10 10 9 8 8 7 7 6 4 5 6 6 5 5 5 3 2 1 0 -1 -3 -4 -5 -5 -7 -7 -7 -7 -8 -8 -8 -8 -8 -9 -9 -9 -9 -9
9 9 10 10 10 10 10 10 9 8 8 8 6 5 6 7 7 7 6 5 4 2 1 -0 -1 -2 -4 -5 -6 -6 -7 -7 -7 -7 -8 -8 -9 -8 -8 -8 -8 -8 -8
10 9 10 9 9 9 10 10 9 9 9 9 7 7 8 7 7 6 6 6 5 3 1 -0 -1 -2 -3 -4 -4 -5 -5 -5 -5 -6 -7 -7 -7 -7 -7 -6 -6 -5 -4
9 9 9 8 8 8 9 9 8 9 8 9 9 9 8 8 8 7 7 7 4 4 2 1 -0 -1 -1 -2 -2 -2 -2 -3 -4 -4 -5 -6 -5 -4 -4 -2 -3 -3 -2
9 9 8 8 8 9 9 9 9 9 9 9 9 9 9 8 8 8 8 8 6 5 3 2 1 1 1 0 -0 -1 -2 -2 -2 -4 -5 -2 -2 -3 -2 -1 -2 -7 -11
10 9 7 8 8 9 9 9 9 9 9 8 9 10 8 9 8 7 8 7 6 5 4 3 3 3 2 1 0 -1 -2 -2 -3 -4 -4 -2 -1 -3 -2 -5 -13 -17 -21
11 9 8 8 8 9 9 9 9 9 9 8 9 10 9 8 7 8 8 7 7 6 5 4 3 2 2 1 -0 -0 -1 -2 -2 -2 -3 -1 -3 -5 -13 -18 -21 -24 -27
11 10 9 9 9 10 10 9 9 9 9 8 9 10 9 8 7 7 8 8 7 5 5 4 4 2 1 -2 -2 0 -0 -1 -2 -4 -1 -6 -3 -11 -20 -23 -25 -28 -30
11 9 9 10 9 10 9 9 9 8 8 9 9 9 9 7 8 8 8 8 6 5 3 2 -1 -1 -1 -3 -5 -6 -4 -3 -9 -6 -5 -8 -13 -20 -21 -24 -27 -30 -32
11 10 9 10 9 10 10 10 9 8 8 9 9 9 8 8 7 7 8 9 6 5 5 3 -2 -2 -2 -5 -9 -13 -13 -13 -13 -12 -12 -14 -18 -20 -22 -26 -28 -31 -33
10 10 10 9 10 10 10 10 10 9 8 8 9 9 9 8 7 8 9 8 6 6 6 4 -3 -4 -6 -11 -14 -14 -15 -15 -15 -17 -16 -15 -14 -17 -22 -26 -29 -32 -33
8 10 10 10 10 11 11 10 10 10 10 9 9 10 10 8 8 8 8 8 6 6 5 4 -3 -8 -14 -15 -15 -15 -15 -17 -18 -19 -19 -17 -18 -19 -24 -27 -30 -32 -32
Wind_Speed
18 19 17 17 17 17 17 18 19 19 19 20 20 19 17 16 16 17 19 19 19 18 18 19 18 19 20 19 19 20 20 20 21 21 22 21 20 20 19 18 20 21 21
22 21 18 18 18 18 18 18 19 19 19 19 20 17 17 18 19 20 23 20 18 16 17 19 18 18 18 19 19 19 19 20 19 19 19 21 21 20 20 19 20 20 20
22 22 20 19 19 18 19 18 18 19 19 18 17 18 20 21 21 20 22 19 15 18 19 18 18 18 19 19 19 19 19 18 18 19 22 23 21 19 19 18 19 20 19
24 23 21 19 19 19 17 15 15 17 18 17 16 19 20 20 20 20 19 18 18 18 18 18 19 19 19 18 18 19 18 17 16 14 15 16 14 14 14 15 16 16 15
25 22 22 20 19 19 16 15 15 16 18 18 19 21 19 20 19 19 18 18 18 17 16 17 16 15 15 15 15 16 16 14 13 13 13 16 17 17 16 16 15 14 13
25 22 21 20 17 17 15 15 16 16 18 20 20 20 19 19 18 18 17 16 15 15 15 14 14 14 14 15 14 16 16 15 14 14 14 16 16 14 14 13 13 13 12
25 23 20 18 16 16 16 16 16 17 18 20 19 19 18 17 16 16 15 14 13 13 13 12 13 14 14 15 14 15 15 13 13 14 14 14 14 11 11 12 11 11 10
25 24 21 18 17 17 17 16 16 16 17 17 17 17 15 16 15 15 13 12 12 11 10 10 11 12 13 14 12 12 12 11 10 10 11 11 10 11 11 12 12 11 11
22 22 20 19 18 17 17 16 16 16 16 16 15 14 13 13 13 12 12 11 10 9 9 9 9 10 11 11 11 11 10 10 9 9 8 10 11 11 11 11 11 11 12
21 20 20 20 18 18 17 16 15 15 15 14 13 13 12 11 10 10 10 9 9 8 8 7 7 8 8 9 9 9 9 9 9 10 10 11 10 10 10 11 11 11 11
24 22 21 20 19 18 17 17 16 15 12 12 12 11 10 9 8 8 8 8 8 7 7 6 6 5 5 5 5 5 5 6 8 9 9 9 10 10 10 10 10 10 10
27 25 22 20 19 18 17 16 17 14 12 11 10 9 8 8 8 8 8 8 7 6 5 4 3 3 3 3 3 3 4 5 6 6 8 8 9 10 9 9 9 10 11
29 26 24 22 20 18 17 16 16 13 12 10 8 7 8 8 9 8 8 7 6 6 4 3 1 1 1 1 2 2 3 4 4 5 6 7 8 9 9 9 9 10 10
29 27 25 22 20 18 16 15 14 13 11 9 6 8 8 8 8 7 7 7 6 6 5 5 4 2 2 1 2 2 3 4 4 5 6 6 7 7 8 8 7 7 8
30 28 26 24 21 19 17 16 14 13 11 7 6 7 8 8 8 8 7 7 6 5 4 3 3 3 3 3 3 4 4 4 5 5 5 5 4 4 5 6 6 7 9
28 28 26 24 22 20 18 16 14 13 11 8 8 9 8 7 5 5 5 4 4 3 3 3 3 3 3 2 2 2 3 4 4 4 4 4 4 4 5 7 8 10 11
27 26 27 25 22 19 16 15 14 14 9 7 7 7 6 6 6 5 4 4 2 3 3 3 2 2 2 2 3 3 3 2 2 2 3 3 5 6 7 8 10 11 12
27 26 26 25 23 21 19 17 15 13 11 10 7 5 6 5 5 2 2 3 5 3 2 2 3 3 3 2 3 3 2 1 2 2 3 4 6 7 7 10 11 13 17
25 25 28 27 25 23 21 19 18 17 14 12 10 6 5 5 5 3 2 0 2 4 3 2 2 3 3 3 3 2 2 2 2 3 3 4 6 7 10 12 15 20 21
26 24 27 28 25 24 22 21 19 17 15 13 11 8 5 7 5 5 3 1 0 2 2 2 3 3 3 3 2 2 4 5 5 4 3 5 6 9 12 16 19 19 20
28 27 29 29 27 26 26 24 21 19 18 17 14 11 8 10 8 8 6 3 2 3 3 3 3 3 3 2 2 4 5 6 6 1 2 3 6 10 15 17 17 19 19
31 30 32 32 31 30 26 25 23 20 20 18 17 13 11 12 9 6 5 4 3 3 4 4 4 3 1 2 2 5 5 4 4 5 0 5 4 12 16 16 19 19 20
35 33 34 34 33 33 29 26 25 22 19 21 20 16 14 13 11 9 7 4 3 2 3 4 3 2 2 3 4 3 3 3 2 1 3 3 8 15 15 18 18 18 20
38 34 34 34 33 34 31 31 27 25 25 22 20 18 16 16 14 11 8 5 3 1 4 4 3 2 2 2 3 4 4 2 2 0 3 8 14 17 16 15 16 20 20
39 38 35 35 35 34 35 32 29 26 24 22 21 20 18 19 16 15 10 7 4 0 4 5 3 1 1 2 2 2 3 3 4 6 7 15 17 17 19 18 17 19 18
41 40 38 37 37 37 36 33 32 29 27 25 23 24 22 22 21 16 13 9 7 2 3 5 3 1 0 1 2 3 4 4 7 9 14 20 23 24 22 21 22 25 25
Wind_Direction
153 148 140 137 136 129 125 122 119 113 114 113 111 112 113 112 115 112 104 102 99 100 98 95 92 91 90 92 92 91 90 88 87 86 87 80 74 72 68 69 71 71 71
146 145 141 140 137 133 130 126 122 119 117 115 113 112 111 109 113 120 108 106 102 106 99 95 97 92 92 89 88 89 88 88 89 89 86 77 70 67 65 63 68 70 68
145 146 144 142 139 137 132 125 123 123 120 119 118 112 113 112 109 109 110 114 114 101 97 98 94 95 92 88 85 86 86 88 90 91 89 85 83 80 75 68 66 65 64
149 146 144 145 141 139 133 130 132 132 129 126 122 121 114 110 109 107 103 104 103 103 99 97 96 96 91 86 84 84 86 86 85 86 86 89 81 65 64 69 65 72 67
152 145 144 146 143 141 133 131 133 136 135 128 124 123 119 113 108 106 106 104 100 96 99 99 99 95 86 82 84 87 84 81 78 76 77 74 71 68 65 62 64 59 58
151 147 148 148 147 145 137 134 135 134 130 127 127 123 120 117 111 107 108 111 112 109 102 101 97 91 81 78 84 86 86 81 77 71 68 73 72 65 61 55 49 43 39
154 150 150 154 148 144 139 138 130 126 126 127 126 126 122 119 114 112 111 109 110 110 105 99 93 87 83 78 85 86 85 81 74 71 68 69 66 60 52 44 40 37 36
155 158 159 154 149 142 142 138 131 126 127 129 125 128 124 119 117 116 116 113 108 104 102 98 94 88 84 85 87 83 82 79 74 69 63 52 44 41 40 37 36 36 38
158 155 153 154 151 150 146 138 133 129 126 129 129 127 127 123 121 119 117 119 118 113 105 98 91 86 83 84 81 82 75 72 66 60 55 48 40 39 40 39 39 40 40
160 159 156 153 156 152 144 139 133 126 125 129 130 129 127 125 123 121 121 121 119 112 106 98 91 83 80 81 78 77 69 63 50 52 51 50 47 44 42 43 44 44 43
167 167 165 161 162 159 150 146 134 142 138 135 135 135 136 136 136 133 131 131 128 120 112 102 93 89 90 80 72 64 52 46 48 52 55 52 49 46 45 46 46 43 39
172 171 173 172 169 166 159 156 149 151 143 139 137 139 144 149 142 138 135 133 132 126 115 98 82 73 82 76 58 48 53 57 55 57 56 50 44 42 46 46 42 37 32
175 176 176 176 173 171 168 162 156 157 152 143 138 135 141 146 143 138 132 127 128 131 131 122 119 109 98 60 48 50 55 53 56 54 47 42 43 44 43 40 37 32 24
180 180 179 181 178 175 175 170 165 164 158 151 145 138 135 136 133 131 128 116 123 125 133 134 127 123 115 73 47 47 38 38 39 38 39 40 44 42 37 33 28 19 11
184 185 183 186 183 182 179 177 174 169 163 158 153 154 143 138 129 124 129 126 117 121 113 105 95 93 83 60 44 45 48 48 53 49 51 50 43 35 24 17 8 2 358
191 190 187 188 186 186 184 183 180 174 169 161 154 153 145 147 142 140 125 121 105 95 83 80 74 67 68 67 53 39 37 40 36 35 34 34 27 17 9 4 360 357 355
195 193 192 191 187 187 186 187 187 176 165 165 153 148 144 148 136 126 113 87 86 85 68 73 61 57 46 26 20 16 18 22 32 43 41 33 24 17 13 8 0 353 349
197 198 196 192 184 183 190 193 191 187 185 181 170 143 164 162 156 146 120 74 76 59 58 51 54 47 24 7 3 4 15 25 71 66 62 55 36 19 11 359 351 344 335
200 200 196 189 182 186 193 192 195 195 197 187 191 189 180 188 186 175 183 173 23 29 38 37 34 25 17 0 359 13 45 118 126 91 71 45 24 13 360 351 342 335 333
204 201 193 186 186 184 190 190 195 198 198 196 204 203 208 203 201 204 210 239 60 358 359 351 356 2 4 359 20 82 103 113 121 105 26 351 2 358 352 343 335 334 333
205 199 195 189 187 193 194 196 199 200 201 199 201 209 212 199 207 207 211 226 303 330 333 329 333 350 0 6 127 131 115 110 127 82 359 37 352 355 347 337 337 335 335
206 202 199 196 194 201 202 201 202 202 203 203 206 213 206 203 222 201 211 237 287 320 337 335 325 319 345 86 149 161 161 182 202 315 195 347 340 344 347 342 341 342 340
208 207 203 202 203 205 208 205 207 205 204 206 207 207 207 205 218 217 214 243 276 327 354 357 1 41 111 110 95 135 151 157 288 211 282 335 337 339 345 345 344 346 342
212 211 210 207 208 211 212 215 218 211 206 205 208 208 214 212 217 225 218 241 239 337 7 3 12 45 80 90 101 93 91 71 58 227 292 318 335 340 343 348 351 346 343
214 212 213 212 213 214 216 218 222 224 221 212 212 214 222 216 214 218 228 233 213 30 16 7 6 18 58 94 81 56 29 9 357 334 321 324 330 336 341 346 349 348 345
215 214 215 215 216 217 217 219 222 225 226 221 215 216 226 219 222 223 228 226 209 201 11 10 14 33 58 345 340 345 345 346 339 338 328 327 332 336 343 350 351 351 346
Height
1544 1546 1548 1550 1553 1554 1555 1556 1558 1558 1559 1561 1561 1562 1563 1564 1565 1566 1567 1568 1568 1569 1569 1569 1569 1568 1569 1569 1569 1569 1569 1569 1569 1570 1570 1570 1570 1569 1568 1569 1567 1567 1567
1543 1547 1549 1551 1554 1555 1557 1558 1559 1560 1563 1563 1564 1564 1565 1566 1566 1567 1569 1570 1570 1570 1570 1571 1571 1571 1571 1571 1572 1572 1572 1572 1572 1572 1572 1572 1573 1572 1572 1571 1570 1570 1569
1544 1547 1550 1553 1555 1557 1559 1560 1561 1562 1565 1565 1566 1566 1567 1567 1568 1569 1571 1572 1572 1572 1573 1573 1573 1573 1573 1574 1574 1575 1574 1574 1575 1575 1575 1575 1576 1575 1575 1575 1574 1573 1573
1545 1548 1552 1555 1557 1559 1560 1562 1563 1565 1566 1567 1568 1568 1569 1570 1571 1571 1572 1573 1574 1575 1575 1575 1575 1576 1576 1576 1577 1577 1577 1577 1577 1578 1578 1577 1577 1577 1577 1576 1576 1575 1575
1546 1550 1553 1556 1558 1560 1561 1563 1564 1566 1567 1568 1569 1570 1571 1572 1573 1573 1575 1575 1576 1576 1578 1578 1578 1579 1579 1579 1580 1579 1579 1580 1580 1580 1580 1580 1580 1580 1579 1578 1578 1577 1577
1547 1551 1554 1557 1559 1561 1563 1564 1566 1567 1568 1569 1570 1571 1573 1574 1575 1576 1577 1578 1579 1580 1581 1580 1581 1581 1581 1582 1582 1582 1582 1582 1582 1582 1582 1582 1582 1581 1581 1580 1579 1579 1578
1548 1552 1555 1558 1560 1562 1564 1566 1567 1568 1569 1571 1572 1574 1575 1576 1577 1578 1579 1580 1581 1581 1582 1582 1583 1584 1584 1584 1584 1584 1584 1584 1584 1584 1584 1584 1584 1583 1582 1581 1581 1580 1579
1549 1553 1556 1559 1561 1563 1565 1567 1569 1570 1571 1572 1574 1576 1577 1578 1579 1580 1581 1582 1582 1583 1584 1584 1585 1586 1586 1586 1586 1586 1586 1585 1585 1586 1586 1585 1585 1584 1583 1582 1582 1581 1580
1551 1553 1556 1559 1562 1564 1567 1568 1570 1572 1573 1574 1575 1577 1579 1580 1581 1582 1583 1584 1584 1585 1585 1586 1587 1587 1588 1588 1588 1588 1587 1587 1587 1587 1587 1587 1586 1585 1584 1583 1582 1582 1581
1552 1555 1557 1560 1563 1565 1568 1570 1572 1573 1575 1576 1577 1579 1580 1582 1582 1583 1584 1585 1586 1587 1587 1588 1588 1589 1589 1590 1590 1589 1589 1589 1589 1589 1588 1588 1587 1586 1585 1584 1584 1583 1582
1552 1555 1558 1560 1563 1565 1568 1570 1573 1574 1576 1577 1579 1580 1581 1582 1584 1585 1586 1586 1587 1588 1588 1589 1589 1590 1590 1590 1590 1590 1590 1590 1590 1590 1589 1588 1588 1587 1586 1585 1585 1584 1583
1550 1553 1558 1560 1563 1566 1568 1571 1573 1575 1577 1578 1579 1581 1582 1583 1584 1585 1586 1587 1588 1589 1589 1590 1590 1590 1590 1591 1591 1591 1591 1591 1590 1590 1590 1589 1588 1587 1587 1586 1585 1585 1584
1548 1552 1556 1560 1563 1566 1568 1570 1573 1575 1577 1579 1580 1581 1582 1583 1584 1586 1587 1588 1589 1589 1590 1590 1590 1590 1590 1591 1591 1591 1591 1591 1591 1590 1590 1589 1589 1588 1587 1587 1586 1585 1585
1547 1551 1556 1560 1563 1566 1568 1571 1573 1576 1578 1579 1580 1581 1583 1584 1585 1586 1587 1588 1589 1589 1590 1590 1591 1590 1591 1591 1591 1591 1591 1591 1591 1590 1590 1590 1589 1589 1588 1587 1587 1586 1585
1545 1550 1554 1559 1562 1565 1568 1571 1573 1576 1578 1580 1581 1582 1583 1584 1586 1586 1587 1588 1589 1589 1590 1590 1591 1591 1591 1591 1591 1591 1591 1591 1590 1590 1590 1589 1589 1589 1588 1588 1587 1586 1585
1545 1549 1553 1557 1561 1565 1567 1571 1573 1576 1578 1580 1581 1582 1583 1585 1586 1587 1588 1589 1589 1590 1590 1590 1590 1591 1591 1590 1590 1590 1590 1590 1591 1591 1590 1590 1590 1589 1589 1588 1587 1586 1585
1543 1548 1552 1556 1560 1564 1567 1570 1573 1575 1577 1580 1581 1582 1584 1585 1586 1587 1588 1589 1589 1589 1589 1590 1590 1590 1590 1590 1590 1590 1590 1590 1590 1590 1590 1590 1590 1590 1589 1588 1587 1586 1585
1542 1546 1551 1555 1558 1563 1567 1570 1572 1575 1577 1579 1581 1582 1583 1585 1586 1587 1588 1589 1589 1589 1589 1589 1589 1589 1590 1589 1589 1589 1589 1590 1590 1590 1590 1590 1590 1590 1589 1588 1587 1586 1584
1541 1544 1548 1552 1556 1561 1565 1568 1571 1573 1576 1578 1580 1582 1583 1584 1586 1587 1588 1588 1588 1589 1589 1589 1589 1589 1589 1589 1589 1589 1589 1589 1589 1590 1591 1591 1591 1590 1589 1588 1586 1584 1581
1539 1543 1547 1551 1555 1559 1563 1566 1569 1572 1574 1577 1579 1581 1582 1583 1585 1586 1587 1588 1588 1588 1588 1588 1588 1588 1588 1588 1588 1588 1588 1589 1590 1590 1591 1591 1591 1590 1589 1587 1584 1582 1579
1536 1540 1544 1548 1552 1556 1560 1563 1567 1569 1572 1575 1577 1579 1581 1582 1584 1585 1586 1587 1587 1588 1588 1587 1587 1587 1587 1587 1587 1588 1589 1589 1590 1591 1590 1591 1590 1590 1588 1585 1583 1580 1577
1531 1536 1540 1545 1549 1553 1558 1562 1565 1568 1570 1573 1575 1578 1579 1581 1583 1584 1585 1586 1586 1587 1587 1587 1586 1586 1586 1586 1587 1587 1589 1591 1590 1590 1590 1590 1590 1588 1586 1584 1581 1578 1575
1527 1531 1536 1541 1546 1550 1555 1559 1562 1566 1569 1570 1572 1575 1578 1580 1581 1583 1583 1585 1586 1586 1586 1586 1585 1585 1585 1586 1586 1587 1587 1588 1588 1589 1589 1589 1588 1587 1584 1581 1579 1576 1572
1522 1528 1533 1538 1542 1547 1551 1555 1558 1562 1564 1568 1571 1573 1575 1578 1580 1581 1582 1583 1585 1585 1585 1584 1584 1584 1584 1585 1586 1586 1586 1587 1587 1588 1587 1587 1587 1584 1582 1579 1576 1573 1570
1517 1522 1528 1533 1538 1542 1547 1551 1555 1559 1562 1566 1568 1570 1572 1575 1577 1579 1581 1582 1583 1584 1584 1583 1583 1584 1584 1585 1585 1585 1585 1585 1585 1585 1584 1584 1583 1581 1579 1577 1574 1570 1567
1510 1516 1522 1526 1531 1536 1541 1546 1550 1554 1558 1561 1564 1566 1569 1572 1574 1577 1579 1581 1582 1583 1583 1583 1583 1583 1583 1584 1584 1584 1585 1585 1584 1583 1581 1579 1576 1573 1571 1569 1567 1564 1561